1991 TT
ephemeris date magn radius delta ra dec elong phase
Today21 Oct 202527.21.003 AU0.511 AU08h37m-02°33'75.9°74.4°
1991 TT - 2025-10-21
astro.vanbuitenen.nl


 
-1 year
-1 month
-1 day
Now
+1 day
+1 month
+1 year

The interactive orbit chart above shows the body's path through the solar system and its position at the given date. Green and blue lines are shown perpendicular to the ecliptic plane: Green if the path is above the ecliptic plane, blue if it is below. (Left-click and drag to rotate the view; Right-click and drag to move the view; Use scroll wheel to zoom in our out.)

The orbital elements of 1991 TT are:

            e (Eccentricity)                : 0.1617049
            a (Semimajor axis)              : 1.1949504
            i (Inclination)                 : 14.78128
            Ω (Longitude of ascending node) : 192.31321
            ω (Argument of perihelion)      : 218.04426
            M (Mean anomaly)                : 236.82213
            Epoch                           : 2025 May 05

            L (Longitude of perihelion)     : 229.42560
            B (Latitude of perihelion)      : -9.04609
            P (Orbital period in years)     : 1.31            
        

The light curve chart below shows the estimated development of the minor planet's magnitude.


The all-sky chart below shows the path of the minor planet over the same period as the light curve. The current position is marked yellow.





The following chart shows the path of the minor planet in the next few days. The field of view is optimized for (~10x50) binoculars and finderscopes.




Ephemerides:
Date       Time       RA (2000)    DEC (2000)    delta   radius  elong  phase   PA    magn
2025-10-21 00:00 UT   08 37 30.0   -02 33 43     0.511    1.003   75.9   74.4   280   27.2 
2025-10-21 03:32 UT   08 37 59.8   -02 38 47     0.512    1.003   75.9   74.4   280   27.2 
2025-10-22 00:00 UT   08 40 51.7   -03 08 02     0.513    1.003   75.9   74.3   280   27.2 
2025-10-23 00:00 UT   08 44 11.8   -03 42 02     0.515    1.003   75.9   74.2   281   27.2 
2025-10-24 00:00 UT   08 47 30.4   -04 15 42     0.518    1.004   75.9   74.1   281   27.2 
2025-10-25 00:00 UT   08 50 47.5   -04 49 02     0.520    1.004   75.9   73.9   281   27.2 
2025-10-26 00:00 UT   08 54 03.1   -05 22 02     0.522    1.004   76.0   73.8   281   27.2 
2025-10-27 00:00 UT   08 57 17.2   -05 54 42     0.524    1.005   76.0   73.7   282   27.2 
2025-10-28 00:00 UT   09 00 30.0   -06 27 02     0.526    1.006   76.0   73.5   282   27.2 
2025-10-29 00:00 UT   09 03 41.3   -06 59 01     0.528    1.006   76.0   73.4   282   27.2 


    Terminology:
            
    delta:  distance between minor planet and earth in AU
    radius: distance between minor planet and sun in AU
    magn:   magnitude (brightness) estimate    
    ra:     right ascension in hours (24h = 360deg)
    dec:    declination in degrees
    elong:  elongation in degrees (angle sun-earth-minor planet)    
    phase:  phase angle in degrees (angle sun-minor planet-earth)        
    AU:     Astronomical Unit (mean distance between earth and sun: 149597870.7 km
    

Orbital elements provided by the MPC (Minor Planet Center).
Calculations by a modified version of AAPlus, a C# implementation of the AA+ project by PJ Naughter from the algorithms presented in the book "Astronomical Algorithms" by Jean Meeus.
NGC2000 dso catalog and star labels from VizieR as provided by the Strasbourg astronomical Data Center.
Tycho2 catalog from the ESO archive.